Location: Caltech
(34.1382°N, 118.1253°W)
Time: 17:46:18
(UTC-07:00)

ARGOS - Visible Passes

Search period start: 22 July 2017 00:00
Search period end: 01 August 2017 00:00
Orbit: 819 x 836 km, 98.6° (Epoch: 22 July)

Date Brightness Start Highest point End Pass type
(mag) Time Alt. Az. Time Alt. Az. Time Alt. Az.
22 Jul 4.9 20:44:14 10° E 20:47:13 15° ENE 20:50:10 10° NNE visible
22 Jul 3.5 22:25:21 43° SSW 22:26:53 60° W 22:32:12 10° NNW visible
23 Jul 3.0 22:06:36 45° SSE 22:08:20 90° E 22:13:43 10° NNW visible
24 Jul 3.2 21:47:52 37° SE 21:49:49 60° ENE 21:55:05 10° N visible
24 Jul 5.4 23:29:23 13° WSW 23:30:22 14° W 23:33:04 10° WNW visible
25 Jul 3.8 21:29:08 27° ESE 21:31:21 39° ENE 21:36:18 10° N visible
25 Jul 4.9 23:10:39 21° WSW 23:11:39 22° W 23:15:43 10° NW visible
26 Jul 4.3 21:10:23 19° ESE 21:12:55 26° ENE 21:17:19 10° NNE visible
26 Jul 4.4 22:51:54 30° WSW 22:52:59 33° W 22:57:46 10° NW visible
27 Jul 4.8 20:51:39 12° ESE 20:54:33 18° ENE 20:58:03 10° NNE visible
27 Jul 3.7 22:33:10 42° SW 22:34:21 50° W 22:39:33 10° NNW visible
28 Jul 5.1 20:34:25 10° E 20:36:14 12° ENE 20:38:05 10° NE visible
28 Jul 3.1 22:14:26 52° S 22:15:46 77° WSW 22:21:09 10° NNW visible
29 Jul 3.1 21:55:42 47° SE 21:57:13 71° ENE 22:02:34 10° N visible
29 Jul 5.6 23:37:13 11° W 23:37:53 11° W 23:39:30 10° WNW visible
30 Jul 3.5 21:36:59 34° ESE 21:38:44 46° ENE 21:43:51 10° N visible
30 Jul 5.2 23:18:30 18° WSW 23:19:09 18° W 23:22:45 10° NW visible
31 Jul 4.1 21:18:15 24° ESE 21:20:18 31° ENE 21:24:57 10° N visible
31 Jul 4.6 22:59:46 27° WSW 23:00:27 27° W 23:04:59 10° NW visible
